FW7474 Weather Reports


Display with metric or nautical units.
time (UTC)temp
F
wind
direction
speed
MPH
gust
MPH
rain 1hr
in
rain 24hr
in
rain mn
in
humidity
%
barometer
mb
20260506233727 49 226 3.0 9.0 0.00 0.04 0.00 86 1013.6
20260506233615 49 293 4.0 11.0 0.00 0.04 0.00 86 1013.5
20260506232727 49 256 4.0 11.0 0.00 0.04 0.00 85 1013.7
20260506232226 49 222 3.0 8.0 0.00 0.04 0.00 86 1013.6
20260506231726 50 305 3.0 10.0 0.00 0.04 0.00 85 1013.4
20260506231234 50 286 3.0 10.0 0.00 0.04 0.00 85 1013.5
20260506230726 50 314 2.0 9.0 0.00 0.04 0.00 85 1013.6
20260506230229 50 273 3.0 9.0 0.00 0.04 0.00 85 1013.4
20260506225727 50 233 4.0 9.0 0.00 0.04 0.00 85 1013.7
20260506225227 50 304 5.0 10.0 0.00 0.04 0.00 85 1013.6
20260506225112 50 262 4.0 10.0 0.00 0.04 0.00 85 1013.5
20260506224227 50 231 4.0 10.0 0.00 0.04 0.00 85 1013.4
20260506223726 50 278 4.0 10.0 0.00 0.04 0.00 85 1013.2
20260506223226 50 226 5.0 9.0 0.00 0.04 0.00 84 1013.3
20260506222732 50 260 4.0 10.0 0.00 0.04 0.00 85 1013.2
20260506222228 50 262 3.0 11.0 0.00 0.04 0.00 84 1013.1
20260506222113 50 311 8.0 11.0 0.00 0.04 0.00 84 1013.2
20260506222021 50 240 7.0 10.0 0.00 0.04 0.00 84 1013.0
20260506221930 50 264 5.0 13.0 0.00 0.04 0.00 84 1013.1
20260506221814 50 300 4.0 13.0 0.00 0.04 0.00 84 1013.3
20260506215656 50 258 7.0 12.0 0.00 0.04 0.04 84 1013.2
20260506215155 50 258 5.0 11.0 0.00 0.04 0.04 84 1013.1
20260506215040 50 255 3.0 10.0 0.00 0.04 0.04 84 1013.2
20260506214540 50 260 4.0 7.0 0.00 0.04 0.04 84 1013.2
20260506213656 50 296 6.0 7.0 0.00 0.04 0.04 84 1012.9
20260506213156 50 269 4.0 9.0 0.00 0.04 0.04 84 1013.0
20260506212655 50 236 7.0 11.0 0.00 0.04 0.04 84 1012.9
20260506212630 50 280 5.0 11.0 0.00 0.04 0.04 84 1012.9
20260506211705 50 261 4.0 11.0 0.00 0.04 0.04 83 1012.5
20260506211458 50 289 6.0 10.0 0.00 0.04 0.04 83 1012.5
20260506211329 50 277 7.0 11.0 0.00 0.04 0.04 83 1012.6
20260506210158 50 273 8.0 10.0 0.00 0.04 0.04 83 1012.7
20260506205655 50 249 4.0 12.0 0.00 0.04 0.04 83 1012.6
20260506205159 50 265 9.0 12.0 0.00 0.04 0.04 82 1012.6
20260506205027 50 281 0.0 11.0 0.00 0.04 0.04 83 1012.5
20260506204156 50 256 7.0 11.0 0.00 0.04 0.04 82 1012.6
20260506203655 51 301 6.0 11.0 0.00 0.04 0.04 83 1012.6
20260506203155 51 302 4.0 13.0 0.00 0.04 0.04 84 1012.6
20260506202656 51 86 1.0 13.0 0.00 0.04 0.04 84 1012.3
20260506202614 51 271 4.0 13.0 0.00 0.04 0.04 85 1012.6
20260506201725 51 254 5.0 13.0 0.00 0.04 0.04 85 1012.4
20260506201224 51 341 7.0 10.0 0.00 0.04 0.04 86 1012.2
20260506200728 52 309 4.0 10.0 0.00 0.04 0.04 85 1012.4
20260506200229 52 271 3.0 10.0 0.00 0.04 0.04 85 1012.2
20260506195656 52 294 3.0 14.0 0.00 0.04 0.04 85 1012.0
20260506195209 52 278 5.0 14.0 0.00 0.04 0.04 85 1012.1
20260506194926 52 256 3.0 8.0 0.00 0.04 0.04 85 1011.7
20260506194834 52 251 4.0 6.0 0.00 0.04 0.04 85 1012.1
20260506193711 52 260 3.0 11.0 0.00 0.04 0.04 85 1011.9
20260506193211 52 302 6.0 11.0 0.00 0.04 0.04 85 1011.8
20260506192657 53 247 3.0 8.0 0.00 0.04 0.04 84 1011.8
20260506192317 53 251 1.0 8.0 0.00 0.04 0.04 84 1011.7
20260506192100 53 305 3.0 12.0 0.00 0.04 0.04 84 1011.7
20260506192009 53 1 3.0 12.0 0.00 0.04 0.04 84 1011.6
20260506191901 53 293 5.0 11.0 0.00 0.04 0.04 84 1011.6
20260506191816 53 333 4.0 11.0 0.00 0.04 0.00 85 1011.4
20260506185655 53 252 7.0 9.0 0.00 0.05 0.04 85 1011.5
20260506185212 53 326 6.0 11.0 0.00 0.05 0.04 84 1011.4
20260506184657 53 262 3.0 11.0 0.00 0.05 0.04 84 1011.3
20260506184155 53 252 4.0 11.0 0.00 0.05 0.04 84 1011.3
20260506183658 53 296 4.0 11.0 0.00 0.05 0.04 83 1011.1
20260506183157 53 287 7.0 10.0 0.00 0.05 0.04 84 1011.1
20260506182657 54 244 3.0 13.0 0.00 0.05 0.04 83 1011.0
20260506182207 54 351 4.0 13.0 0.00 0.05 0.04 83 1010.9
20260506181655 54 261 9.0 13.0 0.00 0.05 0.04 83 1010.9
20260506181157 54 307 7.0 13.0 0.00 0.05 0.04 83 1010.9
20260506180655 54 314 6.0 13.0 0.00 0.06 0.04 84 1010.6
20260506180157 54 324 6.0 9.0 0.00 0.06 0.04 84 1010.6
20260506175654 54 294 4.0 11.0 0.00 0.06 0.04 84 1010.6
20260506175159 54 293 4.0 11.0 0.00 0.06 0.04 83 1010.6
20260506174655 55 299 6.0 9.0 0.00 0.06 0.04 83 1010.6
20260506174155 55 267 4.0 11.0 0.00 0.06 0.04 83 1010.4
20260506173657 55 281 4.0 11.0 0.00 0.06 0.04 83 1010.5
20260506173155 55 287 6.0 8.0 0.00 0.07 0.04 83 1010.3
20260506172706 55 242 5.0 9.0 0.00 0.07 0.04 83 1010.6
20260506172200 55 290 5.0 11.0 0.00 0.07 0.04 82 1010.2
20260506171656 55 284 9.0 11.0 0.00 0.07 0.04 82 1010.3
20260506171155 55 349 3.0 13.0 0.00 0.07 0.04 82 1010.2
20260506170655 55 316 3.0 13.0 0.00 0.07 0.04 81 1010.2
20260506170154 56 303 5.0 14.0 0.00 0.08 0.04 81 1010.3
20260506165936 56 277 4.0 14.0 0.00 0.08 0.04 80 1010.0
20260506165159 56 315 5.0 10.0 0.00 0.08 0.04 80 1010.1
20260506164655 57 306 8.0 11.0 0.00 0.08 0.04 81 1010.0
20260506164157 57 293 9.0 16.0 0.00 0.08 0.04 80 1010.1
20260506163655 57 284 11.0 16.0 0.00 0.08 0.04 79 1010.1
20260506163154 58 270 9.0 16.0 0.00 0.08 0.04 78 1010.0
20260506162801 58 272 8.0 15.0 0.00 0.08 0.04 79 1009.8
20260506162731 58 303 6.0 14.0 0.00 0.08 0.04 79 1009.9
20260506162607 58 298 7.0 17.0 0.00 0.08 0.04 78 1009.9
20260506162430 58 324 11.0 22.0 0.00 0.08 0.04 78 1009.7
20260506162320 58 306 11.0 22.0 0.00 0.08 0.04 78 1009.9
20260506162230 58 279 9.0 17.0 0.00 0.08 0.00 79 1009.7
20260506161954 58 303 14.0 17.0 0.00 0.08 0.04 79 1009.7
20260506155130 58 305 13.0 15.0 0.00 0.08 0.04 81 1009.7
20260506154629 57 322 5.0 13.0 0.00 0.08 0.04 83 1009.8
20260506154130 56 269 6.0 15.0 0.00 0.08 0.04 85 1009.8
20260506153641 56 275 3.0 15.0 0.00 0.08 0.04 84 1009.8
20260506153129 56 301 9.0 13.0 0.00 0.08 0.04 85 1010.1
20260506152630 56 296 10.0 16.0 0.00 0.08 0.04 85 1009.8
20260506152130 57 268 9.0 16.0 0.00 0.08 0.04 85 1010.1
20260506151630 57 279 7.0 15.0 0.00 0.08 0.04 86 1009.9
20260506151136 56 286 2.0 9.0 0.00 0.08 0.04 88 1009.9
20260506150630 56 294 2.0 10.0 0.00 0.08 0.04 89 1009.8
20260506150537 56 276 3.0 12.0 0.00 0.08 0.04 88 1010.0
20260506145632 56 255 7.0 13.0 0.00 0.08 0.04 88 1009.7
20260506145138 56 269 6.0 13.0 0.00 0.08 0.04 87 1010.1
20260506144629 56 258 6.0 13.0 0.00 0.09 0.04 87 1009.6
20260506144130 56 248 8.0 13.0 0.00 0.09 0.04 86 1009.7
20260506143630 56 234 9.0 12.0 0.00 0.09 0.04 87 1009.5
20260506143132 56 253 4.0 12.0 0.00 0.09 0.04 87 1009.7
20260506142630 56 257 8.0 12.0 0.00 0.09 0.04 87 1009.7
20260506142535 57 256 6.0 14.0 0.00 0.09 0.04 87 1009.6
20260506141702 57 200 4.0 15.0 0.00 0.10 0.04 87 1009.7
20260506141259 57 271 11.0 19.0 0.00 0.10 0.04 85 1009.5
20260506140129 58 296 5.0 14.0 0.00 0.10 0.04 82 1009.6
20260506140030 58 265 8.0 11.0 0.00 0.11 0.04 82 1009.5
20260506135129 58 237 4.0 9.0 0.00 0.11 0.04 83 1009.4
20260506134640 58 278 5.0 9.0 0.00 0.11 0.04 84 1009.4
20260506134130 58 260 4.0 11.0 0.00 0.11 0.04 84 1009.6
20260506134027 58 295 4.0 23.0 0.00 0.11 0.04 83 1009.3
20260506133130 58 271 8.0 23.0 0.00 0.11 0.04 80 1009.3
20260506133015 59 257 8.0 19.0 0.00 0.12 0.04 78 1009.5
20260506132238 59 239 15.0 19.0 0.00 0.12 0.04 76 1009.4
20260506132135 60 288 10.0 18.0 0.00 0.12 0.04 75 1009.3
20260506132044 59 247 7.0 14.0 0.00 0.12 0.04 75 1009.4
20260506131940 60 268 6.0 12.0 0.00 0.12 0.04 76 1009.2
20260506131823 60 241 4.0 14.0 0.00 0.13 0.00 77 1008.9
20260506125627 59 282 3.0 14.0 0.00 0.13 0.04 76 1009.2
20260506125124 59 218 5.0 12.0 0.00 0.13 0.04 76 1009.2
20260506124625 59 247 6.0 13.0 0.00 0.13 0.04 77 1009.2
20260506124125 59 229 6.0 13.0 0.00 0.13 0.04 76 1009.2
20260506123628 59 245 4.0 10.0 0.00 0.14 0.04 77 1009.2
20260506123501 59 213 2.0 10.0 0.00 0.14 0.04 78 1009.2
20260506122625 58 244 5.0 6.0 0.00 0.14 0.04 80 1009.0
20260506122125 58 243 1.0 4.0 0.00 0.14 0.04 81 1009.3
20260506121638 58 197 2.0 4.0 0.00 0.15 0.04 82 1009.0
20260506121128 57 223 3.0 4.0 0.00 0.15 0.04 83 1009.2
20260506120957 57 249 0.0 8.0 0.00 0.15 0.04 83 1009.1
20260506120429 57 224 4.0 8.0 0.00 0.16 0.04 83 1009.4
20260506120311 57 141 4.0 8.0 0.00 0.16 0.04 84 1009.4
20260506115452 57 145 1.0 6.0 0.00 0.16 0.04 83 1009.2
20260506114956 57 201 0.0 5.0 0.00 0.17 0.04 83 1009.3
20260506114125 57 161 0.0 6.0 0.00 0.17 0.04 83 1009.3
20260506114009 57 200 2.0 7.0 0.00 0.17 0.04 82 1009.4
20260506113155 57 305 1.0 7.0 0.00 0.17 0.04 82 1009.3
20260506112728 57 206 2.0 7.0 0.00 0.17 0.04 82 1009.4
20260506112149 57 286 2.0 6.0 0.00 0.17 0.04 82 1009.1
20260506111948 57 206 0.0 10.0 0.00 0.17 0.04 83 1009.3
20260506111145 57 233 2.0 10.0 0.00 0.17 0.04 81 1009.4
20260506110654 57 140 1.0 12.0 0.00 0.17 0.04 82 1009.2
20260506110449 57 261 2.0 12.0 0.00 0.17 0.04 82 1009.2
20260506105706 57 253 2.0 9.0 0.00 0.17 0.04 84 1009.1
20260506105125 57 101 2.0 9.0 0.00 0.17 0.04 85 1009.3
20260506104634 56 279 2.0 12.0 0.00 0.17 0.04 86 1009.2
20260506104144 56 219 7.0 13.0 0.00 0.17 0.04 86 1009.1
20260506103639 56 258 2.0 13.0 0.00 0.17 0.04 85 1009.2
20260506103137 56 226 3.0 7.0 0.00 0.17 0.04 85 1009.1
20260506102738 57 220 2.0 12.0 0.00 0.17 0.00 84 1008.9
20260506102710 56 179 2.0 10.0 0.00 0.17 0.04 85 1009.3
20260506102503 56 216 6.0 10.0 0.00 0.17 0.04 85 1008.9
20260506102328 56 222 4.0 8.0 0.00 0.17 0.04 85 1009.0
20260506102234 56 258 4.0 8.0 0.00 0.17 0.04 85 1008.9
20260506102143 56 226 2.0 10.0 0.00 0.17 0.04 84 1008.9
20260506095627 57 216 3.0 12.0 0.00 0.17 0.04 84 1009.1
20260506095127 57 151 5.0 13.0 0.00 0.17 0.04 84 1008.9
20260506094627 56 309 3.0 13.0 0.00 0.17 0.04 86 1009.1
20260506094127 56 207 4.0 12.0 0.00 0.17 0.04 86 1009.0
20260506093635 56 170 2.0 9.0 0.00 0.17 0.04 87 1009.2
20260506093130 56 22 0.0 9.0 0.00 0.17 0.04 88 1009.1
20260506092846 55 144 2.0 6.0 0.00 0.17 0.04 88 1009.1
20260506092818 55 182 2.0 7.0 0.00 0.17 0.04 88 1009.1
20260506091630 55 284 2.0 10.0 0.00 0.17 0.04 89 1009.2
20260506091130 55 242 3.0 10.0 0.00 0.17 0.04 90 1009.1
20260506090630 55 278 3.0 6.0 0.00 0.17 0.04 91 1008.9
20260506090140 54 124 2.0 6.0 0.00 0.17 0.04 91 1009.1
20260506085627 54 207 2.0 8.0 0.00 0.17 0.04 91 1009.0
20260506085131 54 228 0.0 8.0 0.00 0.17 0.04 91 1009.1
20260506085011 54 232 4.0 9.0 0.00 0.17 0.04 91 1008.8
20260506084130 54 229 0.0 13.0 0.00 0.17 0.04 91 1009.0
20260506083627 54 156 0.0 13.0 0.00 0.17 0.04 91 1008.9
20260506083127 54 213 6.0 15.0 0.00 0.17 0.04 91 1008.9
20260506082858 54 226 5.0 9.0 0.00 0.17 0.04 92 1008.9
20260506082817 53 194 2.0 15.0 0.00 0.17 0.04 91 1008.9
20260506081627 53 209 3.0 7.0 0.00 0.17 0.04 92 1008.9
20260506081127 54 224 6.0 7.0 0.00 0.17 0.04 92 1008.8
20260506080629 54 115 0.0 7.0 0.00 0.17 0.04 92 1008.8
20260506080140 54 119 1.0 5.0 0.00 0.17 0.04 93 1008.9
20260506073130 54 308 0.0 14.0 0.00 0.17 0.04 93 1008.8
20260506073013 53 214 2.0 14.0 0.00 0.17 0.04 93 1008.9
20260506072238 54 217 2.0 5.0 0.00 0.17 0.04 94 1008.8
20260506072105 53 155 3.0 6.0 0.00 0.17 0.04 94 1008.8
20260506072014 53 226 5.0 6.0 0.00 0.17 0.04 94 1008.9
20260506071920 53 4 2.0 6.0 0.00 0.17 0.04 94 1009.0
20260506071805 53 263 1.0 6.0 0.00 0.17 0.00 95 1008.9
20260506062122 52 185 2.0 6.0 0.00 0.17 0.04 96 1008.6
20260506062040 52 80 0.0 6.0 0.00 0.17 0.04 96 1008.8
20260506061122 52 267 2.0 6.0 0.00 0.17 0.04 97 1008.7
20260506060622 52 146 0.0 6.0 0.00 0.17 0.04 97 1008.7
20260506060122 52 209 1.0 6.0 0.00 0.17 0.04 97 1008.7
20260506050639 51 225 3.0 4.0 0.00 0.17 0.04 98 1008.5
20260506050124 51 197 1.0 5.0 0.00 0.17 0.04 98 1008.7
20260506045121 51 144 2.0 6.0 0.00 0.17 0.04 98 1008.5
20260506044622 51 211 3.0 6.0 0.00 0.17 0.04 99 1008.6
20260506044122 51 213 2.0 4.0 0.00 0.17 0.04 98 1008.5
20260506043622 51 223 1.0 4.0 0.00 0.17 0.04 98 1008.6
20260506043323 51 103 0.0 4.0 0.00 0.17 0.04 98 1008.7
20260506043317 51 212 2.0 4.0 0.00 0.17 0.04 98 1008.8
20260506043253 51 193 2.0 4.0 0.00 0.17 0.04 98 1008.7
20260506042509 51 191 2.0 3.0 0.00 0.17 0.04 99 1008.6
20260506042333 51 184 1.0 4.0 0.00 0.17 0.04 98 1008.9
20260506041941 51 126 1.0 4.0 0.00 0.17 0.04 98 1008.7
20260506041826 51 94 0.0 4.0 0.00 0.17 0.00 98 1008.6
20260506035923 51 194 0.0 4.0 0.00 0.17 0.04 98 1008.9
20260506035122 51 289 0.0 4.0 0.00 0.17 0.04 98 1008.9
20260506034622 51 156 3.0 4.0 0.00 0.17 0.04 98 1009.1
20260506034122 51 233 2.0 6.0 0.00 0.17 0.04 98 1009.1
20260506033622 52 253 2.0 6.0 0.00 0.17 0.04 98 1008.9
20260506033122 52 216 2.0 5.0 0.00 0.17 0.04 98 1009.2
20260506032622 52 195 2.0 4.0 0.00 0.17 0.04 98 1009.0
20260506032507 52 216 0.0 4.0 0.00 0.17 0.04 98 1009.1
20260506031622 52 261 0.0 3.0 0.00 0.17 0.04 98 1008.9
20260506031127 52 211 0.0 3.0 0.00 0.17 0.04 98 1009.0
20260506030622 52 152 0.0 5.0 0.00 0.17 0.04 98 1009.0
20260506030138 52 140 0.0 5.0 0.00 0.17 0.04 98 1009.0
20260506025621 52 215 3.0 3.0 0.00 0.17 0.04 98 1009.2
20260506025135 52 143 0.0 6.0 0.00 0.17 0.04 98 1009.1
20260506025038 52 225 3.0 6.0 0.00 0.17 0.04 98 1009.2
20260506024121 52 119 3.0 4.0 0.00 0.17 0.04 98 1009.0
20260506023622 53 119 1.0 3.0 0.00 0.17 0.04 98 1009.2
20260506023122 53 175 1.0 4.0 0.00 0.17 0.04 98 1009.2
20260506022624 53 230 2.0 6.0 0.00 0.17 0.04 98 1009.1
20260506022124 53 150 2.0 6.0 0.00 0.17 0.04 98 1009.3
20260506021622 53 209 3.0 4.0 0.00 0.17 0.04 98 1009.4
20260506021122 53 173 0.0 5.0 0.00 0.17 0.04 98 1009.3
20260506021014 53 110 1.0 5.0 0.00 0.17 0.04 98 1009.2
20260506020122 53 220 3.0 4.0 0.00 0.17 0.04 98 1009.2
20260506015621 53 123 0.0 3.0 0.00 0.17 0.04 98 1009.0
20260506015124 53 184 1.0 3.0 0.00 0.17 0.04 98 1009.0
20260506014621 53 231 1.0 4.0 0.00 0.17 0.04 98 1008.9
20260506014122 53 238 0.0 4.0 0.00 0.17 0.04 98 1009.2
20260506013624 53 182 0.0 4.0 0.00 0.17 0.04 98 1009.2
20260506013122 53 128 0.0 8.0 0.00 0.17 0.04 98 1009.5
20260506012622 54 148 2.0 8.0 0.00 0.17 0.04 98 1009.6
20260506012341 54 214 0.0 3.0 0.03 0.17 0.04 98 1009.0
20260506012227 54 128 0.0 3.0 0.01 0.17 0.04 98 1009.4
20260506012124 54 217 0.0 4.0 0.02 0.17 0.04 98 1009.2
20260506012033 54 145 1.0 4.0 0.03 0.17 0.04 98 1009.3
20260506011942 54 231 1.0 2.0 0.03 0.17 0.04 98 1009.3
20260506011829 54 182 0.0 3.0 0.03 0.17 0.00 98 1009.5
20260506005300 54 244 2.0 5.0 0.03 0.17 0.04 98 1009.5
20260506005238 54 103 0.0 5.0 0.03 0.17 0.04 98 1009.5
20260506004154 54 99 1.0 4.0 0.04 0.17 0.04 98 1009.6
20260506003643 54 179 0.0 4.0 0.04 0.17 0.04 98 1009.7
20260506003441 54 140 0.0 10.0 0.04 0.17 0.04 98 1009.6
20260506002622 54 207 1.0 12.0 0.04 0.17 0.04 98 1009.7
20260506002436 54 32 4.0 12.0 0.03 0.16 0.03 98 1009.9
20260506001622 54 29 1.0 11.0 0.02 0.15 0.02 98 1009.9
20260506001118 54 216 2.0 10.0 0.01 0.14 0.01 98 1010.0
20260506000618 54 70 0.0 8.0 0.01 0.14 0.01 98 1009.9
20260506000120 54 261 2.0 3.0 0.01 0.14 0.01 98 1009.8
20260505235621 54 113 1.0 5.0 0.01 0.14 0.01 98 1009.8
20260505235231 54 209 3.0 4.0 0.01 0.14 0.00 98 1010.3
20260505235210 54 224 2.0 5.0 0.01 0.14 0.01 98 1010.0
20260505234123 54 193 0.0 5.0 0.00 0.13 0.00 98 1009.8